Previsão horária em Al Mashhad

Hoje, 25 Junho, Sexta-feira

Tempo Temperatura Precipitação Vento Pressão Humidade
00:00 +28°C° 0 mm 1 m/s 646 mmHg 50%
01:00 +28°C° 0 mm 1 m/s 645 mmHg 46%
02:00 +27°C° 0 mm 1 m/s 645 mmHg 42%
03:00 +27°C° 0 mm 1 m/s 645 mmHg 37%
04:00 +27°C° 0 mm 1 m/s 645 mmHg 36%
05:00 +27°C° 0 mm 1 m/s 645 mmHg 35%
06:00 +25°C° 0 mm 0 m/s 645 mmHg 34%
07:00 +28°C° 0 mm 1 m/s 646 mmHg 30%
08:00 +30°C° 0 mm 2 m/s 646 mmHg 26%
09:00 +32°C° 0 mm 2 m/s 647 mmHg 21%
10:00 +34°C° 0 mm 4 m/s 647 mmHg 19%
11:00 +36°C° 0 mm 5 m/s 647 mmHg 17%
12:00 +38°C° 0 mm 7 m/s 647 mmHg 15%
13:00 +38°C° 0 mm 7 m/s 646 mmHg 17%
14:00 +38°C° 0 mm 6 m/s 646 mmHg 18%
15:00 +38°C° 0 mm 6 m/s 646 mmHg 20%
16:00 +35°C° 0 mm 5 m/s 645 mmHg 26%
17:00 +34°C° 0 mm 5 m/s 645 mmHg 32%
18:00 +32°C° 0 mm 4 m/s 645 mmHg 39%
19:00 +30°C° 0 mm 3 m/s 645 mmHg 46%
20:00 +29°C° 0 mm 2 m/s 645 mmHg 52%
21:00 +28°C° 0 mm 1 m/s 645 mmHg 59%
22:00 +27°C° 0 mm 1 m/s 645 mmHg 61%
23:00 +27°C° 0 mm 1 m/s 645 mmHg 62%

Amanhã, 26 Junho, Sábado

Tempo Temperatura Precipitação Vento Pressão Humidade
00:00 +27°C° 0 mm 1 m/s 645 mmHg 63%
01:00 +27°C° 0 mm 1 m/s 644 mmHg 63%
02:00 +27°C° 0 mm 1 m/s 644 mmHg 62%
03:00 +26°C° 0 mm 1 m/s 643 mmHg 62%
04:00 +26°C° 0 mm 1 m/s 643 mmHg 61%
05:00 +26°C° 0 mm 1 m/s 643 mmHg 61%
06:00 +26°C° 0 mm 1 m/s 644 mmHg 60%
07:00 +27°C° 0 mm 1 m/s 644 mmHg 54%
08:00 +29°C° 0 mm 2 m/s 645 mmHg 48%
09:00 +30°C° 0 mm 2 m/s 645 mmHg 42%
10:00 +31°C° 0 mm 3 m/s 645 mmHg 37%
11:00 +34°C° 0 mm 5 m/s 645 mmHg 33%
12:00 +35°C° 0 mm 6 m/s 645 mmHg 29%
13:00 +35°C° 0 mm 6 m/s 645 mmHg 30%
14:00 +35°C° 0 mm 7 m/s 644 mmHg 30%
15:00 +35°C° 0 mm 8 m/s 644 mmHg 30%
16:00 +34°C° 0 mm 7 m/s 644 mmHg 35%
17:00 +33°C° 0 mm 5 m/s 644 mmHg 40%
18:00 +30°C° 0 mm 4 m/s 644 mmHg 44%
19:00 +30°C° 0 mm 3 m/s 644 mmHg 47%
20:00 +29°C° 0 mm 2 m/s 644 mmHg 50%
21:00 +29°C° 0 mm 1 m/s 644 mmHg 53%
22:00 +26°C° 0 mm 0 m/s 644 mmHg 54%
23:00 +26°C° 0 mm 0 m/s 643 mmHg 55%

Depois de amanhã, 27 Junho, Domingo

Tempo Temperatura Precipitação Vento Pressão Humidade
00:00 +26°C° 0 mm 0 m/s 643 mmHg 56%
01:00 +25°C° 0 mm 0 m/s 643 mmHg 55%
02:00 +25°C° 0 mm 0 m/s 643 mmHg 55%
03:00 +26°C° 0 mm 1 m/s 642 mmHg 54%
04:00 +24°C° 0 mm 0 m/s 642 mmHg 52%
05:00 +24°C° 0 mm 0 m/s 643 mmHg 49%
06:00 +24°C° 0 mm 0 m/s 643 mmHg 47%
07:00 +26°C° 0 mm 0 m/s 644 mmHg 39%
08:00 +30°C° 0 mm 1 m/s 645 mmHg 30%
09:00 +32°C° 0 mm 1 m/s 646 mmHg 22%
10:00 +34°C° 0 mm 2 m/s 646 mmHg 23%
11:00 +35°C° 0 mm 3 m/s 646 mmHg 24%
12:00 +35°C° 0 mm 5 m/s 646 mmHg 25%
13:00 +35°C° 0 mm 6 m/s 645 mmHg 28%
14:00 +35°C° 0 mm 7 m/s 645 mmHg 31%
15:00 +34°C° 0 mm 8 m/s 645 mmHg 33%
16:00 +33°C° 0 mm 7 m/s 645 mmHg 38%
17:00 +32°C° 0 mm 6 m/s 645 mmHg 43%
18:00 +30°C° 0 mm 5 m/s 645 mmHg 47%
19:00 +30°C° 0 mm 4 m/s 645 mmHg 51%
20:00 +29°C° 0 mm 2 m/s 645 mmHg 54%
21:00 +28°C° 0 mm 1 m/s 646 mmHg 57%
22:00 +28°C° 0 mm 1 m/s 646 mmHg 58%
23:00 +26°C° 0 mm 0 m/s 646 mmHg 58%

28 Junho, Segunda-feira

Tempo Temperatura Precipitação Vento Pressão Humidade
00:00 +26°C° 0 mm 0 m/s 646 mmHg 58%
01:00 +27°C° 0 mm 1 m/s 645 mmHg 59%
02:00 +27°C° 0 mm 1 m/s 645 mmHg 59%
03:00 +27°C° 0 mm 1 m/s 645 mmHg 60%
04:00 +27°C° 0 mm 1 m/s 645 mmHg 58%
05:00 +27°C° 0 mm 1 m/s 645 mmHg 57%
06:00 +27°C° 0 mm 1 m/s 646 mmHg 55%
07:00 +28°C° 0 mm 1 m/s 646 mmHg 49%
08:00 +29°C° 0 mm 2 m/s 647 mmHg 44%
09:00 +31°C° 0 mm 2 m/s 647 mmHg 38%
10:00 +31°C° 0 mm 3 m/s 647 mmHg 36%
11:00 +33°C° 0 mm 4 m/s 647 mmHg 34%
12:00 +34°C° 0 mm 5 m/s 647 mmHg 32%
13:00 +33°C° 0.2 mm 5 m/s 647 mmHg 34%
14:00 +33°C° 0.2 mm 5 m/s 647 mmHg 36%
15:00 +32°C° 0.2 mm 6 m/s 647 mmHg 39%
16:00 +30°C° 0 mm 5 m/s 647 mmHg 39%
17:00 +30°C° 0 mm 5 m/s 646 mmHg 40%
18:00 +30°C° 0 mm 4 m/s 646 mmHg 41%
19:00 +29°C° 0 mm 3 m/s 646 mmHg 43%
20:00 +29°C° 0 mm 2 m/s 646 mmHg 45%
21:00 +28°C° 0 mm 1 m/s 646 mmHg 47%
22:00 +28°C° 0 mm 1 m/s 646 mmHg 49%
23:00 +25°C° 0 mm 0 m/s 646 mmHg 50%

29 Junho, Terça-feira

Tempo Temperatura Precipitação Vento Pressão Humidade
00:00 +25°C° 0 mm 0 m/s 645 mmHg 51%
01:00 +25°C° 0 mm 0 m/s 645 mmHg 52%
02:00 +26°C° 0 mm 1 m/s 645 mmHg 52%
03:00 +26°C° 0 mm 1 m/s 645 mmHg 52%
04:00 +26°C° 0 mm 1 m/s 645 mmHg 52%
05:00 +26°C° 0 mm 1 m/s 645 mmHg 52%
06:00 +26°C° 0 mm 1 m/s 645 mmHg 51%
07:00 +27°C° 0 mm 1 m/s 646 mmHg 45%
08:00 +29°C° 0 mm 1 m/s 646 mmHg 40%
09:00 +31°C° 0 mm 2 m/s 647 mmHg 34%
10:00 +33°C° 0 mm 3 m/s 647 mmHg 31%
11:00 +34°C° 0 mm 5 m/s 647 mmHg 29%
12:00 +36°C° 0 mm 6 m/s 647 mmHg 26%
13:00 +36°C° 0 mm 7 m/s 646 mmHg 27%
14:00 +36°C° 0 mm 7 m/s 646 mmHg 28%
15:00 +37°C° 0 mm 8 m/s 646 mmHg 28%
16:00 +34°C° 0 mm 7 m/s 645 mmHg 33%
17:00 +33°C° 0 mm 7 m/s 645 mmHg 38%
18:00 +32°C° 0 mm 6 m/s 645 mmHg 43%
19:00 +30°C° 0 mm 4 m/s 645 mmHg 46%
20:00 +29°C° 0 mm 3 m/s 645 mmHg 48%
21:00 +29°C° 0 mm 1 m/s 645 mmHg 51%
22:00 +28°C° 0 mm 1 m/s 645 mmHg 52%
23:00 +28°C° 0 mm 1 m/s 645 mmHg 52%

30 Junho, Quarta-feira

Tempo Temperatura Precipitação Vento Pressão Humidade
00:00 +26°C° 0 mm 0 m/s 645 mmHg 53%
01:00 +26°C° 0 mm 0 m/s 644 mmHg 53%
02:00 +25°C° 0 mm 0 m/s 644 mmHg 53%
03:00 +25°C° 0 mm 0 m/s 644 mmHg 54%
04:00 +25°C° 0 mm 0 m/s 644 mmHg 54%
05:00 +25°C° 0 mm 0 m/s 644 mmHg 54%
06:00 +25°C° 0 mm 0 m/s 645 mmHg 53%
07:00 +28°C° 0 mm 1 m/s 645 mmHg 47%
08:00 +30°C° 0 mm 1 m/s 646 mmHg 40%
09:00 +32°C° 0 mm 2 m/s 647 mmHg 33%
10:00 +34°C° 0 mm 3 m/s 646 mmHg 31%
11:00 +35°C° 0 mm 4 m/s 646 mmHg 29%
12:00 +35°C° 0 mm 6 m/s 646 mmHg 28%
13:00 +35°C° 0 mm 7 m/s 646 mmHg 28%
14:00 +35°C° 0 mm 7 m/s 646 mmHg 29%
15:00 +35°C° 0 mm 8 m/s 646 mmHg 29%
16:00 +34°C° 0 mm 7 m/s 645 mmHg 33%
17:00 +33°C° 0 mm 7 m/s 645 mmHg 36%
18:00 +32°C° 0 mm 6 m/s 645 mmHg 40%
19:00 +30°C° 0 mm 5 m/s 646 mmHg 42%
20:00 +29°C° 0 mm 3 m/s 646 mmHg 45%
21:00 +28°C° 0 mm 1 m/s 646 mmHg 47%
22:00 +28°C° 0 mm 1 m/s 646 mmHg 48%
23:00 +28°C° 0 mm 1 m/s 646 mmHg 48%
Mostrar mais